Warsaw, IN

6:19 PM EST on December 16, 2017 (GMT -0500)
Warsaw Municipal

Weather History for KASW - June, 2013

Change the Weather History Date:

Friday, June 28, 2013

  Actual Average Record
Temperature  
Mean Temperature 70 °F -  
Max Temperature 78 °F 81 °F 104 °F (2012)
Min Temperature 62 °F 60 °F 39 °F (1992)
Cooling Degree Days 5    
Growing Degree Days 20 (Base 50)    
Moisture  
Dew Point 62 °F    
Average Humidity 76    
Maximum Humidity 100    
Minimum Humidity 47    
Precipitation  
Precipitation 0.00 in - - ()
Sea Level Pressure  
Sea Level Pressure 29.65 in    
Wind  
Wind Speed 5 mph (WNW)    
Max Wind Speed 17 mph    
Max Gust Speed 25 mph    
Visibility 9 miles    
Events      
Averages and records for this station are not official NWS values.
T = Trace of Precipitation, MM = Missing Value Source: NWS Daily Summary

Daily Weather History Graph

Daily Weather History Graph

Search for Another Location

Airport or City:

Trip Planner

Search our weather history database for the weather conditions in past years. The results will help you decide how hot, cold, wet, or windy it might be!

Date:

Astronomy

Jun. 28, 2013 Rise Set
Actual Time 6:12 AM EDT 9:20 PM EDT
Civil Twilight 5:38 AM EDT 9:54 PM EDT
Nautical Twilight 4:55 AM EDT 10:37 PM EDT
Astronomical Twilight 4:04 AM EDT 11:28 PM EDT
Moon 12:13 AM EDT (6/28) 12:23 PM EDT (6/28)
Length of Visible Light 16h 15m
Length of Day
15h 07m
Waning Gibbous, 66% of the Moon is Illuminated
Jun 28
Waning Gibbous
Jun 30
Last Quarter
Jul 8
New
Jul 15
First Quarter
Jul 22
Full

Hourly Weather History & Observations

Time (EDT) Temp. Dew Point Humidity Pressure Visibility Wind Dir Wind Speed Gust Speed Precip Events Conditions
12:15 AM 68.0 °F 68.0 °F 100% 29.70 in 10.0 mi Calm Calm - N/A   Clear
12:35 AM 68.0 °F 66.2 °F 94% 29.70 in 5.0 mi Calm Calm - N/A   Clear
12:55 AM 68.0 °F 66.2 °F 94% 29.71 in 4.0 mi Calm Calm - N/A   Clear
1:15 AM 66.2 °F 66.2 °F 100% 29.70 in 3.0 mi Calm Calm - N/A   Clear
1:35 AM 64.4 °F 64.4 °F 100% 29.71 in 2.5 mi West 3.5 mph - N/A   Clear
1:55 AM 68.0 °F 66.2 °F 94% 29.71 in 10.0 mi WNW 4.6 mph - N/A   Mostly Cloudy
2:35 AM 66.2 °F 64.4 °F 94% 29.70 in 10.0 mi West 3.5 mph - N/A   Clear
2:55 AM 66.2 °F 64.4 °F 94% 29.69 in 7.0 mi Calm Calm - N/A   Clear
3:15 AM 64.4 °F 62.6 °F 94% 29.69 in 10.0 mi West 4.6 mph - N/A   Clear
3:35 AM 64.4 °F 62.6 °F 94% 29.69 in 10.0 mi West 3.5 mph - N/A   Clear
3:55 AM 64.4 °F 62.6 °F 94% 29.68 in 10.0 mi West 4.6 mph - N/A   Clear
4:15 AM 64.4 °F 62.6 °F 94% 29.68 in 10.0 mi WSW 3.5 mph - N/A   Clear
4:35 AM 64.4 °F 62.6 °F 94% 29.67 in 10.0 mi Calm Calm - N/A   Clear
4:55 AM 64.4 °F 62.6 °F 94% 29.67 in 10.0 mi Calm Calm - N/A   Clear
5:15 AM 62.6 °F 62.6 °F 100% 29.67 in 7.0 mi Calm Calm - N/A   Clear
5:35 AM 64.4 °F 62.6 °F 94% 29.68 in 7.0 mi Calm Calm - N/A   Clear
5:55 AM 62.6 °F 62.6 °F 100% 29.68 in 7.0 mi Calm Calm - N/A   Clear
6:15 AM 62.6 °F 62.6 °F 100% 29.68 in 5.0 mi Calm Calm - N/A   Clear
6:35 AM 62.6 °F 62.6 °F 100% 29.67 in 4.0 mi Calm Calm - N/A   Clear
6:55 AM 64.4 °F 62.6 °F 94% 29.67 in 4.0 mi Calm Calm - N/A   Clear
7:15 AM 64.4 °F 64.4 °F 100% 29.67 in 3.0 mi Calm Calm - N/A   Clear
7:35 AM 66.2 °F 64.4 °F 94% 29.68 in 5.0 mi West 5.8 mph - N/A   Clear
7:55 AM 68.0 °F 64.4 °F 88% 29.68 in 7.0 mi NW 5.8 mph - N/A   Clear
8:55 AM 69.8 °F 64.4 °F 83% 29.68 in 10.0 mi NNW 4.6 mph - N/A   Clear
9:15 AM 69.8 °F 64.4 °F 83% 29.68 in 10.0 mi NW 8.1 mph - N/A   Clear
9:35 AM 71.6 °F 64.4 °F 78% 29.68 in 10.0 mi NW 10.4 mph - N/A   Clear
9:55 AM 71.6 °F 64.4 °F 78% 29.68 in 10.0 mi NW 9.2 mph - N/A   Scattered Clouds
10:15 AM 73.4 °F 62.6 °F 69% 29.67 in 10.0 mi WNW 11.5 mph 16.1 mph N/A   Scattered Clouds
10:35 AM 73.4 °F 64.4 °F 73% 29.68 in 10.0 mi WNW 12.7 mph 17.3 mph N/A   Clear
10:55 AM 75.2 °F 62.6 °F 65% 29.67 in 10.0 mi NW 10.4 mph - N/A   Clear
11:15 AM 75.2 °F 62.6 °F 65% 29.67 in 10.0 mi NW 9.2 mph - N/A   Scattered Clouds
11:35 AM 77.0 °F 62.6 °F 61% 29.67 in 10.0 mi NW 10.4 mph 19.6 mph N/A   Scattered Clouds
11:55 AM 77.0 °F 62.6 °F 61% 29.67 in 10.0 mi NNW 11.5 mph - N/A   Clear
12:15 PM 77.0 °F 62.6 °F 61% 29.67 in 10.0 mi NNW 9.2 mph - N/A   Scattered Clouds
12:35 PM 77.0 °F 62.6 °F 61% 29.67 in 10.0 mi NNW 9.2 mph - N/A   Mostly Cloudy
12:55 PM 77.0 °F 62.6 °F 61% 29.67 in 10.0 mi West 8.1 mph - N/A   Overcast
1:15 PM 78.8 °F 62.6 °F 57% 29.66 in 10.0 mi NW 9.2 mph - N/A   Scattered Clouds
1:35 PM 78.8 °F 64.4 °F 61% 29.65 in 10.0 mi WNW 12.7 mph 18.4 mph N/A   Scattered Clouds
1:55 PM 77.0 °F 60.8 °F 57% 29.64 in 10.0 mi WNW 15.0 mph 20.7 mph N/A   Scattered Clouds
2:15 PM 78.8 °F 60.8 °F 54% 29.64 in 10.0 mi WNW 15.0 mph 24.2 mph N/A   Scattered Clouds
2:35 PM 78.8 °F 60.8 °F 54% 29.64 in 10.0 mi NW 15.0 mph 19.6 mph N/A   Mostly Cloudy
2:55 PM 78.8 °F 60.8 °F 54% 29.63 in 10.0 mi WNW 17.3 mph 24.2 mph N/A   Scattered Clouds
3:15 PM 78.8 °F 59.0 °F 51% 29.63 in 10.0 mi WNW 17.3 mph 21.9 mph N/A   Clear
3:35 PM 78.8 °F 59.0 °F 51% 29.63 in 10.0 mi NW 13.8 mph 25.3 mph N/A   Clear
3:55 PM 78.8 °F 57.2 °F 47% 29.62 in 10.0 mi NW 16.1 mph 23.0 mph N/A   Clear
4:15 PM 78.8 °F 59.0 °F 51% 29.62 in 10.0 mi NW 15.0 mph 21.9 mph N/A   Clear
4:35 PM 78.8 °F 60.8 °F 54% 29.62 in 10.0 mi NNW 11.5 mph 19.6 mph N/A   Scattered Clouds
4:55 PM 78.8 °F 60.8 °F 54% 29.61 in 10.0 mi NW 12.7 mph 19.6 mph N/A   Scattered Clouds
5:15 PM 78.8 °F 60.8 °F 54% 29.61 in 10.0 mi NNW 10.4 mph - N/A   Scattered Clouds
5:35 PM 78.8 °F 60.8 °F 54% 29.61 in 10.0 mi NW 12.7 mph 17.3 mph N/A   Scattered Clouds
5:55 PM 78.8 °F 60.8 °F 54% 29.61 in 10.0 mi NNW 11.5 mph 19.6 mph N/A   Clear
6:15 PM 78.8 °F 60.8 °F 54% 29.61 in 10.0 mi NW 9.2 mph 16.1 mph N/A   Clear
6:35 PM 78.8 °F 59.0 °F 51% 29.61 in 10.0 mi NW 10.4 mph 18.4 mph N/A   Clear
6:55 PM 78.8 °F 59.0 °F 51% 29.61 in 10.0 mi NW 13.8 mph - N/A   Clear
7:15 PM 77.0 °F 59.0 °F 54% 29.62 in 10.0 mi NW 11.5 mph 16.1 mph N/A   Clear
7:35 PM 73.4 °F 60.8 °F 65% 29.61 in 10.0 mi NW 5.8 mph - N/A   Scattered Clouds
7:55 PM 73.4 °F 60.8 °F 65% 29.62 in 10.0 mi WSW 15.0 mph - N/A   Mostly Cloudy
8:15 PM 69.8 °F 60.8 °F 73% 29.62 in 10.0 mi West 11.5 mph - N/A   Mostly Cloudy
8:35 PM 69.8 °F 60.8 °F 73% 29.62 in 10.0 mi West 10.4 mph - N/A   Scattered Clouds
8:55 PM 69.8 °F 60.8 °F 73% 29.62 in 10.0 mi West 8.1 mph - N/A   Clear
9:15 PM 68.0 °F 60.8 °F 78% 29.62 in 10.0 mi West 5.8 mph - N/A   Clear
9:35 PM 66.2 °F 60.8 °F 83% 29.61 in 10.0 mi WNW 5.8 mph - N/A   Clear
9:55 PM 66.2 °F 60.8 °F 83% 29.62 in 10.0 mi WNW 6.9 mph - N/A   Clear
10:15 PM 64.4 °F 60.8 °F 88% 29.62 in 10.0 mi WNW 4.6 mph - N/A   Clear
10:35 PM 64.4 °F 60.8 °F 88% 29.63 in 10.0 mi West 4.6 mph - N/A   Clear
10:55 PM 62.6 °F 60.8 °F 94% 29.63 in 10.0 mi West 4.6 mph - N/A   Scattered Clouds
11:15 PM 64.4 °F 60.8 °F 88% 29.62 in 10.0 mi Calm Calm - N/A   Scattered Clouds
11:35 PM 64.4 °F 60.8 °F 88% 29.62 in 10.0 mi WSW 4.6 mph - N/A   Clear
11:55 PM 64.4 °F 60.8 °F 88% 29.62 in 10.0 mi West 3.5 mph - N/A   Scattered Clouds